Location: Dzierzno
(50.6159°N, 19.2852°E)
Time: 21:50:13
(UTC+00:00)

SJ 16-02 - Pass Details

Date: 18 November 2025
Orbit: 585 x 594 km, 75.0° (Epoch: 10 December)

Event Time Altitude Azimuth Distance (km) Brightness Sun altitude
Rises 16:40:05 0° 185° (S) 2,823 5.0 -16.7°
Reaches altitude 10° 16:42:21 10° 180° (S) 1,926 4.0 -17.1°
Maximum altitude 16:46:29 48° 106° (ESE) 781 1.5 -17.7°
Enters shadow 16:47:44 36° 59° (ENE) 948 1.8 -17.9°
